Pascagoula, MS

10:27 AM CDT on April 24, 2017 (GMT -0500)
Lott International

Weather History for KPQL - September, 2013

Change the Weather History Date:

Wednesday, September 25, 2013

  Actual Average Record
Temperature  
Mean Temperature 78 °F -  
Max Temperature 89 °F 85 °F 93 °F (1978)
Min Temperature 69 °F 68 °F 48 °F (1990)
Cooling Degree Days 14    
Growing Degree Days 28 (Base 50)    
Moisture  
Dew Point 71 °F    
Average Humidity 87    
Maximum Humidity 100    
Minimum Humidity 48    
Precipitation  
Precipitation 0.00 in - - ()
Sea Level Pressure  
Sea Level Pressure 29.80 in    
Wind  
Wind Speed 5 mph (NNW)    
Max Wind Speed 9 mph    
Max Gust Speed -    
Visibility 8 miles    
Events      
Averages and records for this station are not official NWS values.
T = Trace of Precipitation, MM = Missing Value Source: NWS Daily Summary

Daily Weather History Graph

Daily Weather History Graph

Search for Another Location

Airport or City:

Trip Planner

Search our weather history database for the weather conditions in past years. The results will help you decide how hot, cold, wet, or windy it might be!

Date:

Astronomy

Sep. 25, 2013 Rise Set
Actual Time 6:44 AM CDT 6:46 PM CDT
Civil Twilight 6:20 AM CDT 7:10 PM CDT
Nautical Twilight 5:52 AM CDT 7:38 PM CDT
Astronomical Twilight 5:24 AM CDT 8:06 PM CDT
Moon 11:14 PM CDT (9/25) 12:28 PM CDT (9/25)
Length of Visible Light 12h 50m
Length of Day
12h 02m
Waning Gibbous, 64% of the Moon is Illuminated
Sep 25
Waning Gibbous
Sep 26
Last Quarter
Oct 4
New
Oct 11
First Quarter
Oct 18
Full

Hourly Weather History & Observations

Time (CDT) Temp. Heat Index Dew Point Humidity Pressure Visibility Wind Dir Wind Speed Gust Speed Precip Events Conditions
12:31 AM 73.4 °F - 71.6 °F 94% 29.79 in 10.0 mi North 6.9 mph - N/A   Overcast
12:53 AM 72.0 °F - 71.1 °F 97% 29.79 in 10.0 mi North 5.8 mph - N/A   Overcast
1:04 AM 71.6 °F - 71.6 °F 100% 29.78 in 10.0 mi NNE 3.5 mph - N/A   Overcast
1:43 AM 71.6 °F - 71.6 °F 100% 29.78 in 10.0 mi North 6.9 mph - N/A   Overcast
1:53 AM 72.0 °F - 71.1 °F 97% 29.79 in 10.0 mi North 4.6 mph - N/A   Overcast
2:19 AM 71.6 °F - 71.6 °F 100% 29.78 in 10.0 mi NNW 4.6 mph - N/A   Overcast
2:53 AM 72.0 °F - 70.0 °F 93% 29.78 in 10.0 mi North 5.8 mph - N/A   Overcast
3:09 AM 71.6 °F - 69.8 °F 94% 29.78 in 10.0 mi North 5.8 mph - N/A   Overcast
3:51 AM 71.6 °F - 69.8 °F 94% 29.77 in 10.0 mi Calm Calm - N/A   Scattered Clouds
3:53 AM 71.1 °F - 70.0 °F 96% 29.77 in 10.0 mi Calm Calm - N/A   Scattered Clouds
4:53 AM 71.1 °F - 70.0 °F 96% 29.78 in 10.0 mi North 5.8 mph - N/A   Mostly Cloudy
5:30 AM 71.6 °F - 69.8 °F 94% 29.78 in 1.8 mi North 3.5 mph - N/A   Overcast
5:53 AM 71.1 °F - 70.0 °F 96% 29.79 in 1.5 mi North 3.5 mph - N/A   Overcast
6:01 AM 71.6 °F - 69.8 °F 94% 29.79 in 3.0 mi NNW 4.6 mph - N/A   Overcast
6:53 AM 71.1 °F - 71.1 °F 100% 29.81 in 3.0 mi NNW 3.5 mph - N/A   Overcast
7:10 AM 71.6 °F - 71.6 °F 100% 29.81 in 2.0 mi Calm Calm - N/A   Overcast
7:29 AM 71.6 °F - 71.6 °F 100% 29.82 in 3.0 mi North 5.8 mph - N/A   Overcast
7:53 AM 72.0 °F - 71.1 °F 97% 29.83 in 10.0 mi North 6.9 mph - N/A   Overcast
8:48 AM 73.4 °F - 71.6 °F 94% 29.83 in 10.0 mi NW 6.9 mph - N/A   Overcast
8:53 AM 73.0 °F - 71.1 °F 93% 29.83 in 10.0 mi NNW 5.8 mph - N/A   Mostly Cloudy
9:53 AM 75.9 °F - 71.1 °F 85% 29.84 in 10.0 mi NNW 4.6 mph - N/A   Overcast
10:34 AM 78.8 °F - 71.6 °F 78% 29.84 in 10.0 mi NNW 8.1 mph - N/A   Mostly Cloudy
10:48 AM 78.8 °F - 71.6 °F 78% 29.83 in 10.0 mi NNW 8.1 mph - N/A   Scattered Clouds
10:53 AM 79.0 °F - 71.1 °F 77% 29.84 in 10.0 mi North 8.1 mph - N/A   Scattered Clouds
11:43 AM 82.4 °F 87.2 °F 71.6 °F 70% 29.83 in 10.0 mi North 9.2 mph - N/A   Mostly Cloudy
11:53 AM 82.9 °F 88.0 °F 72.0 °F 69% 29.83 in 10.0 mi North 5.8 mph - N/A   Mostly Cloudy
12:00 PM 82.4 °F 87.2 °F 71.6 °F 70% 29.83 in 10.0 mi NW 6.9 mph - N/A   Scattered Clouds
12:53 PM 84.0 °F 89.0 °F 71.1 °F 65% 29.82 in 10.0 mi North 3.5 mph - N/A   Clear
1:53 PM 86.0 °F 90.7 °F 70.0 °F 59% 29.80 in 10.0 mi NNE 6.9 mph - N/A   Partly Cloudy
2:53 PM 87.1 °F 91.3 °F 69.1 °F 55% 29.78 in 10.0 mi Calm Calm - N/A   Clear
3:53 PM 88.0 °F 90.7 °F 66.9 °F 49% 29.77 in 10.0 mi North 3.5 mph - N/A   Clear
4:53 PM 88.0 °F 90.3 °F 66.0 °F 48% 29.77 in 10.0 mi North 4.6 mph - N/A   Clear
5:53 PM 84.0 °F 90.2 °F 73.0 °F 69% 29.78 in 10.0 mi WSW 3.5 mph - N/A   Partly Cloudy
6:53 PM 79.0 °F - 72.0 °F 79% 29.79 in 10.0 mi SW 3.5 mph - N/A   Clear
7:53 PM 73.9 °F - 72.0 °F 93% 29.81 in 10.0 mi Calm Calm - N/A   Clear
8:53 PM 73.0 °F - 72.0 °F 96% 29.82 in 7.0 mi Calm Calm - N/A   Partly Cloudy
9:53 PM 72.0 °F - 71.1 °F 97% 29.82 in 4.0 mi Calm Calm - N/A   Clear
10:46 PM 69.8 °F - 69.8 °F 100% 29.82 in 1.8 mi Calm Calm - N/A   Clear
10:53 PM 71.1 °F - 70.0 °F 96% 29.83 in 0.8 mi Calm Calm - N/A   Clear
11:05 PM 69.8 °F - 69.8 °F 100% 29.82 in 2.0 mi Calm Calm - N/A   Clear
11:19 PM 69.8 °F - 69.8 °F 100% 29.82 in 1.8 mi Calm Calm - N/A   Clear
11:53 PM 70.0 °F - 70.0 °F 100% 29.82 in 1.2 mi Calm Calm - N/A   Clear
11:56 PM 69.8 °F - 69.8 °F 100% 29.82 in 4.0 mi Calm Calm - N/A   Clear